Regional Weather Roundup
Issued by NWS Newport/Morehead, NC

Current Version | Previous Version | Text Only | Print | Product List | Glossary On
Versions: 1 2 3 4 5 6 7 8 9 10 11 12 13 14 15 16 17 18 19 20 21 22 23 24 25 26 27 28 29 30 31 32 33 34 35 36 37 38 39 40 41 42 43 44 45 46 47 48 49 50
000 ASUS42 KMHX 050625 RWRMHX WEATHER ROUNDUP FOR EASTERN NORTH CAROLINA NATIONAL WEATHER SERVICE NEWPORT/MOREHEAD CITY NC 200 AM EDT SAT SEP 05 2015 NOTE: "FAIR" INDICATES FEW OR NO CLOUDS BELOW 12,000 FEET WITH NO SIGNIFICANT WEATHER AND/OR OBSTRUCTIONS TO VISIBILITY NCZ015>017-031-032-045>047-102-103-050700- NORTH COAST CITY SKY/WX TMP DP RH WIND PRES REMARKS EDENTON CLEAR 70 68 94 N5 30.05S FOG ELIZABETH CITY CLEAR 75 72 90 N6 30.05F KITTY HAWK CLEAR 78 71 78 NE7 30.02S MANTEO PTCLDY 78 71 80 NE13G20 30.03S $$ NCZ045>047-081-094-103-104-050700- CENTRAL COAST CITY SKY/WX TMP DP RH WIND PRES REMARKS FRISCO MOCLDY 79 72 79 NE12G23 29.99F SWANQUARTER N/A 75 N/A N/A N7 29.97S $$ NCZ095-097-098-100-101-050700- SOUTHERN COAST CITY SKY/WX TMP DP RH WIND PRES REMARKS BEAUFORT FAIR 75 74 96 N7 30.00S CEDAR ISLAND N/A 81 N/A N/A N10G22 30.03S JACKSONVILLE CLEAR 74 70 87 N6 30.02F FOG PINEY ISLAND PTCLDY N/A N/A N/A NE13 30.00S WILMINGTON PTCLDY 72 70 93 NE5 30.02S FOG $$ NCZ011>013-027>030-043-044-078>080-089-090>093-098-050700- COASTAL PLAIN CITY SKY/WX TMP DP RH WIND PRES REMARKS AHOSKIE CLEAR 69 67 95 N3 30.07F FOG CLINTON PTCLDY 71 71 99 CALM 30.05F FOG ELIZABETHTOWN PTCLDY 71 70 98 CALM 30.03F FOG GOLDSBORO CLEAR 71 70 96 N5 30.05R GREENVILLE CLEAR 70 70 100 N5 30.07S FOG HAVELOCK CLEAR 76 73 91 N9 30.03S KENANSVILLE N/A 71 69 94 CALM 30.05F FOG KINSTON N/A 71 70 96 NW3 30.06S FOG NEW BERN CLEAR 74 71 91 NE7 30.04S FOG RICHLANDS CLEAR 72 66 83 N3 30.03F ROCKY MOUNT CLEAR 71 69 93 NE6 30.07S FOG WASHINGTON CLEAR 71 69 95 N3 30.04F FOG WHITEVILLE PTCLDY 71 69 93 CALM 30.02F $$ AMZ130-135-150-152-154-156-158-170-250-252-270-ANZ085-086-088-633-658-670-050700- MARINE OBSERVATIONS STATION/POSITION TIME TEMP WIND PRES WAVE SWELL AIR SEA DIR/SP/G HT/PER HT/PER (UTC) (F) (DEG/KT/KT) (MB) (FT/S) (FT/S) CHESAPEAKE LIGHT 0600 79 60/ 18/ 19 1018.3 64 E VA BEACH 0550 80 80 50/ 16/ 19 1016.6 4/ 5 2/ 9 DUCK 0600 79 80 40/ 17/ 19 1016.3 2 E DUCK 0511 80 N/A 4/ 5 OREGON INLET 0600 79 82 40/ 13/ 19 1016.4 13E OREGON INLT 0600 80 N/A 4/ 5 HATTERAS CG 0600 80 83 40/ 8/ 15 1015.4 DIAMOND BUOY 0550 83 84 60/ 17/ 21 1014.8 3/ 5 CAPE LOOKOUT 0600 81 40/ 18/ 19 1015.4 BEAUFORT LAB 0600 78 83 10/ 7/ 10 1015.2 30 SE NEW RVR IN 0508 81 82 50/ 12/ 17 1015.9 30 SE NEW RVR IN 0525 82 N/A 2/ 3 27 SE WRIGHTSVLE 0600 78 82 70/ 10/ 14 N/A 5 SE WRIGHTSVLE 0508 80 82 40/ 14/ 17 1016.0 225 S CAPE HAT 0550 82 84 40/ 8/ 10 1013.9 1/10 2/10 41 SE CHARLESTON 0550 82 85 20/ 2/ 4 1015.1 1/11 $$

USA.gov is the U.S. government's official web portal to all federal, state and local government web resources and services.